Location: *
(57.8420°S, 159.8600°W)
Time: 04:11:46
(UTC+00:00)

Cosmos 724 - Pass Details

Date: 18 May 2021
Orbit: 848 x 946 km, 65.6° (Epoch: 23 June)

Event Time Altitude Azimuth Distance (km) Brightness Sun altitude
Rises 04:56:47 0° 231° (SW) 3,451 8.1 -19.2°
Reaches altitude 10° 04:59:16 10° 231° (SW) 2,513 7.3 -19.6°
Maximum altitude 05:05:05 89° 316° (NW) 877 4.2 -20.3°
Enters shadow 05:08:26 27° 47° (NE) 1,613 5.3 -20.8°
